Regional Weather Roundup
Issued by NWS Boston, MA

Current Version | Previous Version | Text Only | Print | Product List | Glossary Off
Versions: 1 2 3 4 5 6 7 8 9 10 11 12 13 14 15 16 17 18 19 20 21 22 23 24 25 26 27 28 29 30 31 32 33 34 35 36 37 38 39 40 41 42 43 44 45 46 47 48 49 50
000 ASUS41 KBOX 200810 RWRBOX REGIONAL WEATHER ROUNDUP NATIONAL WEATHER SERVICE TAUNTON MA 300 AM EST MON NOV 20 2017 NOTE: "FAIR" INDICATES FEW OR NO CLOUDS BELOW 12,000 FEET WITH NO SIGNIFICANT WEATHER AND/OR OBSTRUCTIONS TO VISIBILITY. MAZALL-200900- EASTERN MASSACHUSETTS CITY SKY/WX TMP DP RH WIND PRES REMARKS BOSTON PTCLDY 37 24 59 W13G24 29.71R WCI 29 BEVERLY CLEAR 33 24 69 SW9 29.69R WCI 25 LAWRENCE CLEAR 35 24 64 SW8 29.71R WCI 29 BEDFORD CLEAR 33 22 63 W8 29.70R WCI 26 BLUE HILL NOT AVBL NORWOOD CLEAR 36 25 64 SW5 29.73R MARSHFIELD CLEAR 36 25 64 VRB6G14 29.72R WCI 31 PLYMOUTH CLEAR 37 25 61 W10 29.73R WCI 30 TAUNTON PTCLDY 35 25 66 SW5 29.74R WCI 31 NEW BEDFORD MOCLDY 37 24 59 W12 29.74R WCI 29 $$ MAZALL-200900- CAPE COD AND THE ISLANDS CITY SKY/WX TMP DP RH WIND PRES REMARKS FALMOUTH CLEAR 37 25 60 W15G21 29.74S WCI 28 HYANNIS CLEAR 38 25 59 W9 29.72R WCI 31 CHATHAM CLEAR 37 26 64 W7G20 29.73R WCI 32 PROVINCETOWN CLEAR 39 26 59 W24G31 29.71R WCI 28 NANTUCKET CLOUDY 41 26 55 W13G29 29.74R MARTHAS VNYRD PTCLDY 40 25 55 NW13G23 29.74R $$ MAZALL-200900- CENTRAL AND WESTERN MASSACHUSETTS CITY SKY/WX TMP DP RH WIND PRES REMARKS WORCESTER MOCLDY 31 22 69 W18G29 29.69R WCI 19 FITCHBURG PTCLDY 36 23 59 W9 29.71R WCI 29 ORANGE MOCLDY 32 27 81 W14G20 29.72R WCI 22 SPRINGFIELD PTCLDY 35 20 53 NW20G29 29.75R WCI 24 WESTFIELD CLOUDY 35 25 66 W13G21 29.77R WCI 26 NORTH ADAMS FLURRIES 32 22 66 W13G28 29.74R WCI 22 PITTSFIELD FLURRIES 31 20 63 W20G32 29.73R WCI 19 $$ RIZALL-200900- RHODE ISLAND CITY SKY/WX TMP DP RH WIND PRES REMARKS PROVIDENCE MOCLDY 37 27 67 W10 29.76R WCI 30 NEWPORT PTCLDY 37 27 67 W9G18 29.76R WCI 30 BLOCK ISLAND MOCLDY 41 26 55 NW16G30 29.78R SMITHFIELD CLOUDY 33 24 69 W3 29.73R WESTERLY PTCLDY 36 28 73 NW3 29.78R $$ CTZALL-200900- CONNECTICUT CITY SKY/WX TMP DP RH WIND PRES REMARKS BRADLEY INTL PTCLDY 35 22 58 W14 29.78R WCI 26 HARTFORD CLOUDY 36 30 79 W5 29.80S BRIDGEPORT CLEAR 39 19 44 W18G26 29.83R WCI 30 DANBURY CLEAR 36 19 50 W9 29.84R WCI 29 GROTON CLEAR 37 27 67 W8 29.78R WCI 31 NEW HAVEN CLEAR 40 22 48 NW15G25 29.82R WCI 32 CHESTER FAIR 36 25 64 W8G14 29.78R WCI 29 MERIDEN MOCLDY 35 26 69 W7G17 29.81R WCI 29 WILLIMANTIC CLOUDY 37 28 70 W7G18 29.78R WCI 32 OXFORD PTCLDY 33 22 63 W10G23 29.79R WCI 25 $$ MEZ002-015-021-024-NHZ003-005-008-011-012-014-VTZ005-008-200900- NORTHERN NEW ENGLAND CITY SKY/WX TMP DP RH WIND PRES REMARKS PORTLAND ME PTCLDY 33 18 53 SW13G20 29.62R WCI 24 BANGOR ME PTCLDY 31 19 61 W9 29.53R WCI 23 CONCORD NH CLEAR 31 21 66 W6 29.67R WCI 25 MANCHESTER NH CLEAR 28 22 78 CALM 29.68R NASHUA NH CLEAR 32 23 69 SW6 29.70R WCI 26 PORTSMOUTH NH CLEAR 33 21 60 W8 29.66R WCI 26 JAFFREY NH MOCLDY 32 20 61 W7 29.67R WCI 26 KEENE NH CLOUDY 33 19 56 VRB5 29.70R WCI 29 BURLINGTON VT CLOUDY 30 18 60 NW15 29.72R WCI 19 MT. WASHINGTON SNOWSHWR 3 3 100 NW77G84 N/A VSB 1/16WCI -31 $$ NYZ052-076-200900- EASTERN NEW YORK CITY SKY/WX TMP DP RH WIND PRES REMARKS ALBANY FLURRIES 32 24 72 NW14G23 29.81R WCI 22 NEW YORK CITY CLOUDY 41 26 55 W14 29.87R $$ ANZALL-200900- MARINE OBSERVATIONS STATION/POSITION TIME TEMP WIND PRES VSBY WAVE AIR SEA DIR/SP/G HT/PER (UTC) (F) (DEG/KT/KT) (MB) (MI) (FT/S) BOSTON BUOY 0650 41 50 270/ 23/ 29 1003.3 4/ 4 BUZZARDS BAY 0700 42 300/ 20/ 23 1007.4R NANTUCKET SOUND 0750 42 50 300/ 21/ 27 1006.0R 4/ 5 MASS BAY-STELLWA 0704 40 49 280/ 19/ 23 1004.1R 3/ 4 ISLE OF SHOALS 0700 36 270/ 18/ 21 1003.8R S OF BLOCK IS NOT AVBL $$ ......................KEY......................... SKY/WX - SKY CONDITION/PRESENT WEATHER TMP - TEMPERATURE IN FAHRENHEIT DWPT - DEWPOINT IN FAHRENHEIT RH - RELATIVE HUMIDITY IN PERCENT WIND - DIRECTION AND SPEED IN MPH PRES - MEAN SEA LEVEL PRESSURE IN INCHES OF HG WCI - WIND CHILL INDEX VSB - VISIBILITY IN MILES HX - HEAT INDEX TC - TEMPERATURE IN CELSIUS VRB - VARIABLE WIND DIRECTION N/A - NOT AVAILABLE

USA.gov is the U.S. government's official web portal to all federal, state and local government web resources and services.